Time,TemperatureF,DewpointF,PressureIn,WindDirection,WindDirectionDegrees,WindSpeedMPH,WindSpeedGustMPH,Humidity,HourlyPrecipIn,Conditions,Clouds,dailyrainin,SoftwareType,DateUTC
2013-06-28 00:01:00,76.9,75.1,29.75,WSW,255,1.0,3.0,94,0.00,,---,0.62,VWS V14.01,2013-06-28 04:01:00,
2013-06-28 00:06:00,77.2,75.0,29.76,West,269,2.0,3.0,93,0.00,,---,0.00,VWS V14.01,2013-06-28 04:06:00,
2013-06-28 00:11:00,77.3,75.1,29.76,West,269,2.0,3.0,93,0.00,,---,0.00,VWS V14.01,2013-06-28 04:11:00,
2013-06-28 00:16:00,77.2,75.0,29.76,WSW,250,0.0,1.0,93,0.00,,---,0.00,VWS V14.01,2013-06-28 04:16:00,
2013-06-28 00:21:00,77.1,74.9,29.76,SW,233,0.0,0.0,93,0.00,,---,0.00,VWS V14.01,2013-06-28 04:21:00,
2013-06-28 00:26:00,76.9,74.7,29.76,SW,233,0.0,0.0,93,0.00,,---,0.00,VWS V14.01,2013-06-28 04:26:00,
2013-06-28 00:31:00,76.5,74.3,29.76,SSE,152,0.0,0.0,93,0.00,,---,0.00,VWS V14.01,2013-06-28 04:31:00,
2013-06-28 00:36:00,76.1,74.2,29.76,SE,129,1.0,1.0,94,0.00,,---,0.00,VWS V14.01,2013-06-28 04:36:00,
2013-06-28 00:41:00,75.9,74.4,29.76,SSE,150,1.0,2.0,95,0.00,,---,0.00,VWS V14.01,2013-06-28 04:41:00,
2013-06-28 00:46:00,75.6,74.1,29.76,South,170,1.0,1.0,95,0.00,,---,0.00,VWS V14.01,2013-06-28 04:46:00,
2013-06-28 00:51:00,75.5,74.3,29.76,SSW,198,2.0,3.0,96,0.00,,---,0.00,VWS V14.01,2013-06-28 04:51:00,
2013-06-28 00:56:00,75.5,74.3,29.76,SSW,211,2.0,2.0,96,0.00,,---,0.00,VWS V14.01,2013-06-28 04:56:00,
2013-06-28 01:01:00,75.6,74.4,29.76,SSW,197,1.0,2.0,96,0.00,,---,0.00,VWS V14.01,2013-06-28 05:01:00,
2013-06-28 01:06:00,75.6,74.4,29.76,SSW,212,0.0,2.0,96,0.00,,---,0.00,VWS V14.01,2013-06-28 05:06:00,
2013-06-28 01:11:00,75.5,74.3,29.76,SSW,202,2.0,2.0,96,0.00,,---,0.00,VWS V14.01,2013-06-28 05:11:00,
2013-06-28 01:16:00,75.4,74.2,29.76,SW,219,1.0,2.0,96,0.00,,---,0.00,VWS V14.01,2013-06-28 05:16:00,
2013-06-28 01:21:00,75.3,74.1,29.75,SW,221,1.0,2.0,96,0.00,,---,0.00,VWS V14.01,2013-06-28 05:21:00,
2013-06-28 01:26:00,75.3,74.1,29.76,WSW,250,3.0,4.0,96,0.00,,---,0.00,VWS V14.01,2013-06-28 05:26:00,
2013-06-28 01:31:00,75.3,74.1,29.76,SSW,212,4.0,4.0,96,0.00,,---,0.00,VWS V14.01,2013-06-28 05:31:00,
2013-06-28 01:36:00,75.4,74.2,29.76,SW,231,3.0,4.0,96,0.00,,---,0.00,VWS V14.01,2013-06-28 05:36:00,
2013-06-28 01:41:00,75.5,74.3,29.75,West,264,3.0,3.0,96,0.00,,---,0.00,VWS V14.01,2013-06-28 05:41:00,
2013-06-28 01:46:00,75.6,74.4,29.75,WSW,255,3.0,3.0,96,0.00,,---,0.00,VWS V14.01,2013-06-28 05:46:00,
2013-06-28 01:51:00,75.6,74.1,29.76,West,279,2.0,2.0,95,0.00,,---,0.00,VWS V14.01,2013-06-28 05:51:00,
2013-06-28 01:56:00,75.6,74.1,29.76,WSW,238,2.0,3.0,95,0.00,,---,0.00,VWS V14.01,2013-06-28 05:56:00,
2013-06-28 02:01:00,75.6,74.1,29.76,WSW,256,2.0,3.0,95,0.00,,---,0.00,VWS V14.01,2013-06-28 06:01:00,
2013-06-28 02:06:00,75.6,74.1,29.75,West,267,3.0,5.0,95,0.00,,---,0.00,VWS V14.01,2013-06-28 06:06:00,
2013-06-28 02:11:00,75.6,74.1,29.75,WSW,242,2.0,3.0,95,0.00,,---,0.00,VWS V14.01,2013-06-28 06:11:00,
2013-06-28 02:16:00,75.6,74.1,29.75,SW,236,0.0,2.0,95,0.00,,---,0.00,VWS V14.01,2013-06-28 06:16:00,
2013-06-28 02:21:00,75.4,73.9,29.75,West,280,1.0,1.0,95,0.00,,---,0.00,VWS V14.01,2013-06-28 06:21:00,
2013-06-28 02:26:00,75.4,74.2,29.76,WSW,256,2.0,4.0,96,0.00,,---,0.00,VWS V14.01,2013-06-28 06:26:00,
2013-06-28 02:31:00,75.4,74.2,29.76,West,274,1.0,4.0,96,0.00,,---,0.00,VWS V14.01,2013-06-28 06:31:00,
2013-06-28 02:36:00,75.4,74.2,29.75,WSW,246,2.0,4.0,96,0.00,,---,0.00,VWS V14.01,2013-06-28 06:36:00,
2013-06-28 02:41:00,75.3,74.1,29.75,SW,234,2.0,4.0,96,0.00,,---,0.00,VWS V14.01,2013-06-28 06:41:00,
2013-06-28 02:46:00,75.3,74.1,29.75,WNW,282,1.0,6.0,96,0.00,,---,0.00,VWS V14.01,2013-06-28 06:46:00,
2013-06-28 02:51:00,75.3,74.1,29.75,West,277,1.0,3.0,96,0.00,,---,0.00,VWS V14.01,2013-06-28 06:51:00,
2013-06-28 02:56:00,75.3,74.1,29.74,West,264,3.0,4.0,96,0.00,,---,0.00,VWS V14.01,2013-06-28 06:56:00,
2013-06-28 03:02:00,75.4,74.2,29.74,SW,236,2.0,2.0,96,0.00,,---,0.00,VWS V14.01,2013-06-28 07:02:00,
2013-06-28 03:07:00,75.3,74.1,29.74,WSW,240,0.0,2.0,96,0.00,,---,0.00,VWS V14.01,2013-06-28 07:07:00,
2013-06-28 03:12:00,75.3,74.1,29.73,SW,219,0.0,2.0,96,0.00,,---,0.00,VWS V14.01,2013-06-28 07:12:00,
2013-06-28 03:16:00,75.3,74.1,29.73,SW,226,0.0,0.0,96,0.00,,---,0.00,VWS V14.01,2013-06-28 07:16:00,
2013-06-28 03:21:00,75.2,74.0,29.73,SW,233,1.0,1.0,96,0.00,,---,0.00,VWS V14.01,2013-06-28 07:21:00,
2013-06-28 03:26:00,75.2,74.0,29.73,WSW,256,0.0,1.0,96,0.00,,---,0.00,VWS V14.01,2013-06-28 07:26:00,
2013-06-28 03:31:00,75.1,73.9,29.73,SW,233,1.0,1.0,96,0.00,,---,0.00,VWS V14.01,2013-06-28 07:31:00,
2013-06-28 03:36:00,75.0,73.8,29.73,SW,215,1.0,2.0,96,0.00,,---,0.00,VWS V14.01,2013-06-28 07:36:00,
2013-06-28 03:41:00,74.9,73.7,29.73,SSW,212,3.0,4.0,96,0.00,,---,0.00,VWS V14.01,2013-06-28 07:41:00,
2013-06-28 03:47:00,74.8,73.6,29.73,WSW,249,0.0,2.0,96,0.00,,---,0.00,VWS V14.01,2013-06-28 07:47:00,
2013-06-28 03:51:00,74.6,73.4,29.73,SSE,152,2.0,3.0,96,0.00,,---,0.00,VWS V14.01,2013-06-28 07:51:00,
2013-06-28 03:57:00,74.4,73.2,29.73,SSE,152,2.0,2.0,96,0.00,,---,0.00,VWS V14.01,2013-06-28 07:57:00,
2013-06-28 04:02:00,74.3,73.1,29.73,SSE,155,2.0,3.0,96,0.00,,---,0.00,VWS V14.01,2013-06-28 08:02:00,
2013-06-28 04:07:00,74.2,73.3,29.73,South,174,1.0,3.0,97,0.00,,---,0.00,VWS V14.01,2013-06-28 08:07:00,
2013-06-28 04:12:00,74.2,73.3,29.73,SE,143,1.0,1.0,97,0.00,,---,0.00,VWS V14.01,2013-06-28 08:12:00,
2013-06-28 04:17:00,74.2,73.3,29.73,South,180,3.0,3.0,97,0.00,,---,0.00,VWS V14.01,2013-06-28 08:17:00,
2013-06-28 04:22:00,74.1,73.2,29.72,South,174,1.0,1.0,97,0.00,,---,0.00,VWS V14.01,2013-06-28 08:22:00,
2013-06-28 04:27:00,74.0,73.1,29.73,SSW,212,1.0,2.0,97,0.00,,---,0.00,VWS V14.01,2013-06-28 08:27:00,
2013-06-28 04:32:00,74.0,73.1,29.73,SSW,208,2.0,2.0,97,0.00,,---,0.00,VWS V14.01,2013-06-28 08:32:00,
2013-06-28 04:37:00,73.9,73.0,29.73,SSW,198,2.0,3.0,97,0.00,,---,0.00,VWS V14.01,2013-06-28 08:37:00,
2013-06-28 04:42:00,73.7,72.8,29.73,SW,228,3.0,3.0,97,0.00,,---,0.00,VWS V14.01,2013-06-28 08:42:00,
2013-06-28 04:47:00,73.7,72.8,29.73,SW,225,3.0,3.0,97,0.00,,---,0.00,VWS V14.01,2013-06-28 08:47:00,
2013-06-28 04:52:00,73.7,72.8,29.73,SSW,201,2.0,3.0,97,0.00,,---,0.00,VWS V14.01,2013-06-28 08:52:00,
2013-06-28 04:57:00,73.7,72.8,29.73,SW,221,2.0,3.0,97,0.00,,---,0.00,VWS V14.01,2013-06-28 08:57:00,
2013-06-28 05:02:00,73.7,72.8,29.73,WSW,246,1.0,3.0,97,0.00,,---,0.00,VWS V14.01,2013-06-28 09:02:00,
2013-06-28 05:07:00,73.7,72.8,29.72,SSW,211,2.0,3.0,97,0.00,,---,0.00,VWS V14.01,2013-06-28 09:07:00,
2013-06-28 05:12:00,73.6,72.7,29.72,SSW,200,1.0,1.0,97,0.00,,---,0.00,VWS V14.01,2013-06-28 09:12:00,
2013-06-28 05:17:00,73.6,72.7,29.73,SSW,205,3.0,4.0,97,0.00,,---,0.00,VWS V14.01,2013-06-28 09:17:00,
2013-06-28 05:22:00,73.6,72.7,29.73,South,186,0.0,2.0,97,0.00,,---,0.00,VWS V14.01,2013-06-28 09:22:00,
2013-06-28 05:27:00,73.5,72.6,29.73,WSW,251,0.0,2.0,97,0.00,,---,0.00,VWS V14.01,2013-06-28 09:27:00,
2013-06-28 05:32:00,73.5,72.6,29.73,WSW,253,0.0,2.0,97,0.00,,---,0.00,VWS V14.01,2013-06-28 09:32:00,
2013-06-28 05:37:00,73.6,73.0,29.73,WSW,252,1.0,1.0,98,0.00,,---,0.00,VWS V14.01,2013-06-28 09:37:00,
2013-06-28 05:42:00,73.6,73.0,29.73,SW,228,1.0,2.0,98,0.00,,---,0.00,VWS V14.01,2013-06-28 09:42:00,
2013-06-28 05:47:00,73.6,73.0,29.73,SSW,201,3.0,4.0,98,0.00,,---,0.00,VWS V14.01,2013-06-28 09:47:00,
2013-06-28 05:52:00,73.5,72.9,29.73,South,187,2.0,4.0,98,0.00,,---,0.00,VWS V14.01,2013-06-28 09:52:00,
2013-06-28 05:57:00,73.5,72.9,29.73,SSW,193,1.0,1.0,98,0.00,,---,0.00,VWS V14.01,2013-06-28 09:57:00,
2013-06-28 06:02:00,73.5,72.9,29.73,SSW,198,3.0,3.0,98,0.00,,---,0.00,VWS V14.01,2013-06-28 10:02:00,
2013-06-28 06:07:00,73.4,72.8,29.73,SSW,211,1.0,2.0,98,0.00,,---,0.00,VWS V14.01,2013-06-28 10:07:00,
2013-06-28 06:12:00,73.4,72.8,29.73,SW,231,2.0,2.0,98,0.00,,---,0.00,VWS V14.01,2013-06-28 10:12:00,
2013-06-28 06:17:00,73.4,72.8,29.74,SSW,211,2.0,3.0,98,0.00,,---,0.00,VWS V14.01,2013-06-28 10:17:00,
2013-06-28 06:22:00,73.4,72.8,29.74,WSW,239,1.0,2.0,98,0.00,,---,0.00,VWS V14.01,2013-06-28 10:22:00,
2013-06-28 06:27:00,73.4,72.8,29.74,WSW,245,4.0,4.0,98,0.00,,---,0.00,VWS V14.01,2013-06-28 10:27:00,
2013-06-28 06:32:00,73.4,72.8,29.74,West,259,2.0,5.0,98,0.00,,---,0.00,VWS V14.01,2013-06-28 10:32:00,
2013-06-28 06:37:00,73.5,72.9,29.74,WSW,252,0.0,3.0,98,0.00,,---,0.00,VWS V14.01,2013-06-28 10:37:00,
2013-06-28 06:42:00,73.5,72.9,29.74,WSW,256,3.0,5.0,98,0.00,,---,0.00,VWS V14.01,2013-06-28 10:42:00,
2013-06-28 06:47:00,73.4,72.8,29.74,SW,236,0.0,2.0,98,0.00,,---,0.00,VWS V14.01,2013-06-28 10:47:00,
2013-06-28 06:52:00,73.4,72.8,29.73,West,267,3.0,5.0,98,0.00,,---,0.00,VWS V14.01,2013-06-28 10:52:00,
2013-06-28 06:57:00,73.4,72.8,29.73,WSW,253,2.0,5.0,98,0.00,,---,0.00,VWS V14.01,2013-06-28 10:57:00,
2013-06-28 07:02:00,73.3,72.7,29.73,SW,232,1.0,3.0,98,0.00,,---,0.00,VWS V14.01,2013-06-28 11:02:00,
2013-06-28 07:07:00,73.3,72.7,29.74,SW,236,2.0,5.0,98,0.00,,---,0.00,VWS V14.01,2013-06-28 11:07:00,
2013-06-28 07:12:00,73.3,72.7,29.74,West,262,5.0,6.0,98,0.00,,---,0.00,VWS V14.01,2013-06-28 11:12:00,
2013-06-28 07:17:00,73.4,72.8,29.74,West,265,1.0,6.0,98,0.00,,---,0.00,VWS V14.01,2013-06-28 11:17:00,
2013-06-28 07:22:00,73.5,72.9,29.74,WNW,287,6.0,7.0,98,0.00,,---,0.00,VWS V14.01,2013-06-28 11:22:00,
2013-06-28 07:27:00,73.5,72.9,29.74,WNW,290,1.0,2.0,98,0.00,,---,0.00,VWS V14.01,2013-06-28 11:27:00,
2013-06-28 07:32:00,73.6,73.0,29.74,West,275,0.0,4.0,98,0.00,,---,0.00,VWS V14.01,2013-06-28 11:32:00,
2013-06-28 07:37:00,73.6,72.7,29.74,West,267,0.0,2.0,97,0.00,,---,0.00,VWS V14.01,2013-06-28 11:37:00,
2013-06-28 07:42:00,73.9,73.3,29.74,WNW,298,0.0,3.0,98,0.00,,---,0.00,VWS V14.01,2013-06-28 11:42:00,
2013-06-28 07:47:00,74.0,73.1,29.74,West,271,3.0,4.0,97,0.00,,---,0.00,VWS V14.01,2013-06-28 11:47:00,
2013-06-28 07:52:00,74.2,73.3,29.74,WNW,302,2.0,3.0,97,0.00,,---,0.00,VWS V14.01,2013-06-28 11:52:00,
2013-06-28 07:57:00,74.4,73.5,29.74,SW,216,0.0,3.0,97,0.00,,---,0.00,VWS V14.01,2013-06-28 11:57:00,
2013-06-28 08:02:00,74.7,73.5,29.74,West,271,4.0,5.0,96,0.00,,---,0.00,VWS V14.01,2013-06-28 12:02:00,
2013-06-28 08:07:00,75.0,73.5,29.74,WNW,300,2.0,3.0,95,0.00,,---,0.00,VWS V14.01,2013-06-28 12:07:00,
2013-06-28 08:12:00,75.4,73.6,29.74,SW,236,2.0,5.0,94,0.00,,---,0.00,VWS V14.01,2013-06-28 12:12:00,
2013-06-28 08:17:00,75.6,73.4,29.75,West,259,4.0,6.0,93,0.00,,---,0.00,VWS V14.01,2013-06-28 12:17:00,
2013-06-28 08:22:00,76.1,73.6,29.75,West,276,0.0,4.0,92,0.00,,---,0.00,VWS V14.01,2013-06-28 12:22:00,
2013-06-28 08:27:00,76.5,73.7,29.74,WNW,291,2.0,6.0,91,0.00,,---,0.00,VWS V14.01,2013-06-28 12:27:00,
2013-06-28 08:32:00,76.8,73.7,29.74,WNW,290,3.0,5.0,90,0.00,,---,0.00,VWS V14.01,2013-06-28 12:32:00,
2013-06-28 08:38:00,77.2,73.7,29.74,WSW,243,2.0,3.0,89,0.00,,---,0.00,VWS V14.01,2013-06-28 12:38:00,
2013-06-28 08:43:00,77.5,74.3,29.74,WNW,301,2.0,5.0,90,0.00,,---,0.00,VWS V14.01,2013-06-28 12:43:00,
2013-06-28 08:48:00,77.9,74.4,29.74,WSW,246,4.0,5.0,89,0.00,,---,0.00,VWS V14.01,2013-06-28 12:48:00,
2013-06-28 08:53:00,78.2,74.7,29.74,SSW,212,0.0,4.0,89,0.00,,---,0.00,VWS V14.01,2013-06-28 12:53:00,
2013-06-28 08:58:00,78.6,74.8,29.74,WSW,239,5.0,5.0,88,0.00,,---,0.00,VWS V14.01,2013-06-28 12:58:00,
2013-06-28 09:03:00,78.8,74.6,29.74,SW,219,2.0,5.0,87,0.00,,---,0.00,VWS V14.01,2013-06-28 13:03:00,
2013-06-28 09:08:00,79.0,74.8,29.74,SSW,208,4.0,4.0,87,0.00,,---,0.00,VWS V14.01,2013-06-28 13:08:00,
2013-06-28 09:13:00,79.1,74.9,29.74,SW,229,2.0,3.0,87,0.00,,---,0.00,VWS V14.01,2013-06-28 13:13:00,
2013-06-28 09:18:00,79.4,74.5,29.74,SSW,198,2.0,5.0,85,0.00,,---,0.00,VWS V14.01,2013-06-28 13:18:00,
2013-06-28 09:23:00,79.7,75.2,29.74,WSW,245,1.0,3.0,86,0.00,,---,0.00,VWS V14.01,2013-06-28 13:23:00,
2013-06-28 09:28:00,79.7,75.2,29.74,SW,219,3.0,5.0,86,0.00,,---,0.00,VWS V14.01,2013-06-28 13:28:00,
2013-06-28 09:33:00,79.9,75.0,29.74,WSW,246,3.0,5.0,85,0.00,,---,0.00,VWS V14.01,2013-06-28 13:33:00,
2013-06-28 09:38:00,80.2,75.3,29.74,WSW,251,1.0,3.0,85,0.00,,---,0.00,VWS V14.01,2013-06-28 13:38:00,
2013-06-28 09:43:00,80.5,74.9,29.73,WSW,258,3.0,5.0,83,0.00,,---,0.00,VWS V14.01,2013-06-28 13:43:00,
2013-06-28 09:48:00,80.6,75.0,29.74,WSW,242,6.0,6.0,83,0.00,,---,0.00,VWS V14.01,2013-06-28 13:48:00,
2013-06-28 09:53:00,80.7,74.3,29.73,SW,231,3.0,7.0,81,0.00,,---,0.00,VWS V14.01,2013-06-28 13:53:00,
2013-06-28 09:58:00,80.9,74.9,29.73,SSW,204,5.0,6.0,82,0.00,,---,0.00,VWS V14.01,2013-06-28 13:58:00,
2013-06-28 10:03:00,81.1,74.7,29.74,WSW,240,4.0,5.0,81,0.00,,---,0.00,VWS V14.01,2013-06-28 14:03:00,
2013-06-28 10:08:00,81.5,74.4,29.74,WSW,248,6.0,6.0,79,0.00,,---,0.00,VWS V14.01,2013-06-28 14:08:00,
2013-06-28 10:13:00,81.7,74.9,29.74,SW,228,0.0,7.0,80,0.00,,---,0.00,VWS V14.01,2013-06-28 14:13:00,
2013-06-28 10:18:00,81.6,74.8,29.74,WSW,239,7.0,7.0,80,0.00,,---,0.00,VWS V14.01,2013-06-28 14:18:00,
2013-06-28 10:23:00,81.6,74.8,29.73,WSW,243,0.0,3.0,80,0.00,,---,0.00,VWS V14.01,2013-06-28 14:23:00,
2013-06-28 10:28:00,81.8,74.7,29.73,West,278,3.0,4.0,79,0.00,,---,0.00,VWS V14.01,2013-06-28 14:28:00,
2013-06-28 10:33:00,82.4,75.6,29.73,SW,221,2.0,3.0,80,0.00,,---,0.00,VWS V14.01,2013-06-28 14:33:00,
2013-06-28 10:38:00,82.9,75.7,29.73,WSW,256,3.0,6.0,79,0.00,,---,0.00,VWS V14.01,2013-06-28 14:38:00,
2013-06-28 10:43:00,82.7,74.0,29.73,SW,228,4.0,6.0,75,0.00,,---,0.00,VWS V14.01,2013-06-28 14:43:00,
2013-06-28 10:48:00,82.6,74.7,29.72,WSW,243,3.0,7.0,77,0.00,,---,0.00,VWS V14.01,2013-06-28 14:48:00,
2013-06-28 10:53:00,83.0,74.7,29.72,NW,314,3.0,5.0,76,0.00,,---,0.00,VWS V14.01,2013-06-28 14:53:00,
2013-06-28 10:58:00,83.0,74.7,29.72,WSW,252,5.0,9.0,76,0.00,,---,0.00,VWS V14.01,2013-06-28 14:58:00,
2013-06-28 11:03:00,83.0,74.3,29.73,SW,235,6.0,11.0,75,0.00,,---,0.00,VWS V14.01,2013-06-28 15:03:00,
2013-06-28 11:08:00,83.0,74.7,29.72,WSW,256,3.0,11.0,76,0.00,,---,0.00,VWS V14.01,2013-06-28 15:08:00,
2013-06-28 11:13:00,83.1,74.8,29.72,NW,309,2.0,6.0,76,0.00,,---,0.00,VWS V14.01,2013-06-28 15:13:00,
2013-06-28 11:18:00,82.9,74.2,29.72,SW,226,4.0,8.0,75,0.00,,---,0.00,VWS V14.01,2013-06-28 15:18:00,
2013-06-28 11:23:00,83.0,74.7,29.72,SSW,203,1.0,5.0,76,0.00,,---,0.00,VWS V14.01,2013-06-28 15:23:00,
2013-06-28 11:28:00,83.1,74.4,29.72,SW,228,0.0,4.0,75,0.00,,---,0.00,VWS V14.01,2013-06-28 15:28:00,
2013-06-28 11:33:00,83.2,74.8,29.72,WSW,239,2.0,7.0,76,0.00,,---,0.00,VWS V14.01,2013-06-28 15:33:00,
2013-06-28 11:38:00,83.6,74.8,29.72,WSW,243,6.0,6.0,75,0.00,,---,0.00,VWS V14.01,2013-06-28 15:38:00,
2013-06-28 11:43:00,83.9,73.1,29.73,West,262,5.0,8.0,70,0.00,,---,0.00,VWS V14.01,2013-06-28 15:43:00,
2013-06-28 11:48:00,84.2,72.9,29.72,SW,228,11.0,12.0,69,0.00,,---,0.00,VWS V14.01,2013-06-28 15:48:00,
2013-06-28 11:53:00,84.1,73.7,29.73,WSW,243,7.0,9.0,71,0.00,,---,0.00,VWS V14.01,2013-06-28 15:53:00,
2013-06-28 11:58:00,84.3,74.3,29.72,SW,214,3.0,8.0,72,0.00,,---,0.00,VWS V14.01,2013-06-28 15:58:00,
2013-06-28 12:03:00,84.5,74.1,29.72,WSW,253,4.0,8.0,71,0.00,,---,0.00,VWS V14.01,2013-06-28 16:03:00,
2013-06-28 12:08:00,84.5,73.7,29.72,SW,236,8.0,10.0,70,0.00,,---,0.00,VWS V14.01,2013-06-28 16:08:00,
2013-06-28 12:13:00,84.4,73.1,29.72,WSW,252,1.0,4.0,69,0.00,,---,0.00,VWS V14.01,2013-06-28 16:13:00,
2013-06-28 12:18:00,84.5,73.2,29.72,West,260,4.0,10.0,69,0.00,,---,0.00,VWS V14.01,2013-06-28 16:18:00,
2013-06-28 12:24:00,84.3,73.9,29.72,WSW,253,1.0,7.0,71,0.00,,---,0.00,VWS V14.01,2013-06-28 16:24:00,
2013-06-28 12:29:00,84.8,74.8,29.72,SSW,203,10.0,10.0,72,0.00,,---,0.00,VWS V14.01,2013-06-28 16:29:00,
2013-06-28 12:33:00,85.0,74.6,29.72,WNW,289,1.0,6.0,71,0.00,,---,0.00,VWS V14.01,2013-06-28 16:33:00,
2013-06-28 12:38:00,85.2,74.3,29.71,SW,225,7.0,8.0,70,0.00,,---,0.00,VWS V14.01,2013-06-28 16:38:00,
2013-06-28 12:44:00,85.4,73.6,29.72,NW,309,2.0,10.0,68,0.00,,---,0.00,VWS V14.01,2013-06-28 16:44:00,
2013-06-28 12:49:00,85.2,73.0,29.71,West,276,6.0,9.0,67,0.00,,---,0.00,VWS V14.01,2013-06-28 16:49:00,
2013-06-28 12:54:00,85.3,74.4,29.71,WSW,238,0.0,4.0,70,0.00,,---,0.00,VWS V14.01,2013-06-28 16:54:00,
2013-06-28 12:59:00,85.5,74.2,29.71,WSW,256,8.0,8.0,69,0.00,,---,0.00,VWS V14.01,2013-06-28 16:59:00,
2013-06-28 13:04:00,85.6,73.4,29.71,WNW,287,2.0,6.0,67,0.00,,---,0.00,VWS V14.01,2013-06-28 17:04:00,
2013-06-28 13:09:00,86.0,75.1,29.71,West,260,2.0,8.0,70,0.00,,---,0.00,VWS V14.01,2013-06-28 17:09:00,
2013-06-28 13:14:00,86.1,74.3,29.71,SSW,194,0.0,6.0,68,0.00,,---,0.00,VWS V14.01,2013-06-28 17:14:00,
2013-06-28 13:19:00,86.3,74.9,29.71,South,187,3.0,8.0,69,0.00,,---,0.00,VWS V14.01,2013-06-28 17:19:00,
2013-06-28 13:24:00,86.4,74.2,29.71,WSW,256,3.0,7.0,67,0.00,,---,0.00,VWS V14.01,2013-06-28 17:24:00,
2013-06-28 13:29:00,86.5,72.9,29.71,WSW,250,2.0,8.0,64,0.00,,---,0.00,VWS V14.01,2013-06-28 17:29:00,
2013-06-28 13:34:00,86.7,73.1,29.70,SW,231,4.0,7.0,64,0.00,,---,0.00,VWS V14.01,2013-06-28 17:34:00,
2013-06-28 13:39:00,86.9,73.7,29.70,WNW,283,1.0,9.0,65,0.00,,---,0.00,VWS V14.01,2013-06-28 17:39:00,
2013-06-28 13:44:00,87.2,73.6,29.70,West,268,3.0,6.0,64,0.00,,---,0.00,VWS V14.01,2013-06-28 17:44:00,
2013-06-28 13:49:00,87.4,73.7,29.70,SW,228,2.0,7.0,64,0.00,,---,0.00,VWS V14.01,2013-06-28 17:49:00,
2013-06-28 13:54:00,87.5,73.8,29.70,ESE,121,3.0,5.0,64,0.00,,---,0.00,VWS V14.01,2013-06-28 17:54:00,
2013-06-28 13:59:00,88.0,76.6,29.70,West,260,0.0,4.0,69,0.00,,---,0.00,VWS V14.01,2013-06-28 17:59:00,
2013-06-28 14:04:00,88.2,75.9,29.70,ENE,63,1.0,8.0,67,0.00,,---,0.00,VWS V14.01,2013-06-28 18:04:00,
2013-06-28 14:09:00,88.0,70.3,29.69,WNW,283,2.0,12.0,56,0.00,,---,0.00,VWS V14.01,2013-06-28 18:09:00,
2013-06-28 14:14:00,88.1,72.5,29.69,WSW,254,2.0,8.0,60,0.00,,---,0.00,VWS V14.01,2013-06-28 18:14:00,
2013-06-28 14:19:00,87.9,72.8,29.69,WNW,297,3.0,7.0,61,0.00,,---,0.00,VWS V14.01,2013-06-28 18:19:00,
2013-06-28 14:24:00,87.9,71.3,29.69,WSW,253,4.0,8.0,58,0.00,,---,0.00,VWS V14.01,2013-06-28 18:24:00,
2013-06-28 14:29:00,87.8,71.7,29.69,NW,312,4.0,8.0,59,0.00,,---,0.00,VWS V14.01,2013-06-28 18:29:00,
2013-06-28 14:34:00,87.9,73.7,29.68,West,260,2.0,4.0,63,0.00,,---,0.00,VWS V14.01,2013-06-28 18:34:00,
2013-06-28 14:39:00,88.0,71.4,29.68,West,266,8.0,8.0,58,0.00,,---,0.00,VWS V14.01,2013-06-28 18:39:00,
2013-06-28 14:44:00,88.0,72.4,29.68,West,270,3.0,6.0,60,0.00,,---,0.00,VWS V14.01,2013-06-28 18:44:00,
2013-06-28 14:49:00,88.3,73.6,29.68,WSW,249,4.0,7.0,62,0.00,,---,0.00,VWS V14.01,2013-06-28 18:49:00,
2013-06-28 14:54:00,88.5,73.3,29.67,West,262,0.0,9.0,61,0.00,,---,0.00,VWS V14.01,2013-06-28 18:54:00,
2013-06-28 14:59:00,88.7,73.0,29.67,WNW,288,6.0,9.0,60,0.00,,---,0.00,VWS V14.01,2013-06-28 18:59:00,
2013-06-28 15:04:00,88.7,72.0,29.67,WSW,257,4.0,12.0,58,0.00,,---,0.00,VWS V14.01,2013-06-28 19:04:00,
2013-06-28 15:09:00,88.8,74.6,29.67,SW,219,0.0,9.0,63,0.00,,---,0.00,VWS V14.01,2013-06-28 19:09:00,
2013-06-28 15:14:00,88.7,72.5,29.67,WNW,301,3.0,11.0,59,0.00,,---,0.00,VWS V14.01,2013-06-28 19:14:00,
2013-06-28 15:19:00,88.6,72.4,29.66,SSW,207,5.0,10.0,59,0.00,,---,0.00,VWS V14.01,2013-06-28 19:19:00,
2013-06-28 15:24:00,88.8,72.6,29.66,WSW,240,10.0,12.0,59,0.00,,---,0.00,VWS V14.01,2013-06-28 19:24:00,
2013-06-28 15:29:00,88.7,72.0,29.66,SW,232,4.0,7.0,58,0.00,,---,0.00,VWS V14.01,2013-06-28 19:29:00,
2013-06-28 15:34:00,88.6,72.4,29.66,SSE,152,4.0,11.0,59,0.00,,---,0.00,VWS V14.01,2013-06-28 19:34:00,
2013-06-28 15:39:00,88.7,74.0,29.65,SW,226,5.0,8.0,62,0.00,,---,0.00,VWS V14.01,2013-06-28 19:39:00,
2013-06-28 15:44:00,88.6,72.4,29.65,WSW,243,5.0,11.0,59,0.00,,---,0.00,VWS V14.01,2013-06-28 19:44:00,
2013-06-28 15:49:00,88.4,73.2,29.65,WSW,250,4.0,9.0,61,0.00,,---,0.00,VWS V14.01,2013-06-28 19:49:00,
2013-06-28 15:54:00,88.5,71.8,29.65,SW,228,8.0,13.0,58,0.00,,---,0.00,VWS V14.01,2013-06-28 19:54:00,
2013-06-28 15:59:00,88.6,72.9,29.65,SSW,211,5.0,9.0,60,0.00,,---,0.00,VWS V14.01,2013-06-28 19:59:00,
2013-06-28 16:04:00,88.6,72.4,29.65,SSW,203,6.0,7.0,59,0.00,,---,0.00,VWS V14.01,2013-06-28 20:04:00,
2013-06-28 16:09:00,88.6,71.4,29.64,SW,231,7.0,11.0,57,0.00,,---,0.00,VWS V14.01,2013-06-28 20:09:00,
2013-06-28 16:14:00,88.6,71.9,29.64,WSW,255,6.0,10.0,58,0.00,,---,0.00,VWS V14.01,2013-06-28 20:14:00,
2013-06-28 16:19:00,88.7,71.5,29.64,WSW,241,3.0,11.0,57,0.00,,---,0.00,VWS V14.01,2013-06-28 20:19:00,
2013-06-28 16:24:00,88.8,72.1,29.64,South,190,2.0,5.0,58,0.00,,---,0.00,VWS V14.01,2013-06-28 20:24:00,
2013-06-28 16:29:00,89.0,70.8,29.64,WSW,253,6.0,9.0,55,0.00,,---,0.00,VWS V14.01,2013-06-28 20:29:00,
2013-06-28 16:34:00,88.9,71.2,29.64,South,190,4.0,8.0,56,0.00,,---,0.00,VWS V14.01,2013-06-28 20:34:00,
2013-06-28 16:39:00,89.2,71.5,29.64,WSW,240,2.0,12.0,56,0.00,,---,0.00,VWS V14.01,2013-06-28 20:39:00,
2013-06-28 16:44:00,89.2,70.9,29.64,SSW,212,2.0,10.0,55,0.00,,---,0.00,VWS V14.01,2013-06-28 20:44:00,
2013-06-28 16:49:00,89.4,72.2,29.64,SSW,203,0.0,8.0,57,0.00,,---,0.00,VWS V14.01,2013-06-28 20:49:00,
2013-06-28 16:54:00,89.7,73.0,29.64,WSW,240,6.0,8.0,58,0.00,,---,0.00,VWS V14.01,2013-06-28 20:54:00,
2013-06-28 16:59:00,89.9,73.2,29.64,SSW,211,3.0,6.0,58,0.00,,---,0.00,VWS V14.01,2013-06-28 20:59:00,
2013-06-28 17:04:00,89.9,73.2,29.63,SSW,205,8.0,9.0,58,0.00,,---,0.00,VWS V14.01,2013-06-28 21:04:00,
2013-06-28 17:09:00,89.8,73.1,29.63,South,179,4.0,10.0,58,0.00,,---,0.00,VWS V14.01,2013-06-28 21:09:00,
2013-06-28 17:14:00,89.8,73.1,29.62,SW,222,5.0,8.0,58,0.00,,---,0.00,VWS V14.01,2013-06-28 21:14:00,
2013-06-28 17:19:00,89.4,73.2,29.62,SSW,201,4.0,9.0,59,0.00,,---,0.00,VWS V14.01,2013-06-28 21:19:00,
2013-06-28 17:24:00,89.0,73.8,29.62,SE,145,2.0,6.0,61,0.00,,---,0.00,VWS V14.01,2013-06-28 21:24:00,
2013-06-28 17:29:00,88.8,74.1,29.62,South,178,4.0,6.0,62,0.00,,---,0.00,VWS V14.01,2013-06-28 21:29:00,
2013-06-28 17:34:00,88.7,75.0,29.62,SSW,197,6.0,7.0,64,0.00,,---,0.00,VWS V14.01,2013-06-28 21:34:00,
2013-06-28 17:40:00,88.7,74.0,29.62,SSW,211,7.0,11.0,62,0.00,,---,0.00,VWS V14.01,2013-06-28 21:40:00,
2013-06-28 17:45:00,88.8,75.1,29.62,SSW,195,4.0,8.0,64,0.00,,---,0.00,VWS V14.01,2013-06-28 21:45:00,
2013-06-28 17:50:00,88.9,73.7,29.62,SW,232,3.0,8.0,61,0.00,,---,0.00,VWS V14.01,2013-06-28 21:50:00,
2013-06-28 17:55:00,88.8,72.1,29.62,West,270,3.0,13.0,58,0.00,,---,0.00,VWS V14.01,2013-06-28 21:55:00,
2013-06-28 18:00:00,88.8,73.6,29.62,SSW,212,5.0,8.0,61,0.00,,---,0.00,VWS V14.01,2013-06-28 22:00:00,
2013-06-28 18:05:00,88.9,73.2,29.61,WSW,240,6.0,8.0,60,0.00,,---,0.00,VWS V14.01,2013-06-28 22:05:00,
2013-06-28 18:10:00,88.7,73.5,29.61,SW,217,4.0,7.0,61,0.00,,---,0.00,VWS V14.01,2013-06-28 22:10:00,
2013-06-28 18:15:00,88.0,74.8,29.61,South,172,6.0,8.0,65,0.00,,---,0.00,VWS V14.01,2013-06-28 22:15:00,
2013-06-28 18:20:00,87.4,74.2,29.61,SSW,204,4.0,8.0,65,0.00,,---,0.00,VWS V14.01,2013-06-28 22:20:00,
2013-06-28 18:25:00,86.9,74.6,29.61,SW,231,4.0,7.0,67,0.00,,---,0.00,VWS V14.01,2013-06-28 22:25:00,
2013-06-28 18:30:00,86.6,75.2,29.60,South,180,2.0,7.0,69,0.00,,---,0.00,VWS V14.01,2013-06-28 22:30:00,
2013-06-28 18:35:00,86.3,74.9,29.60,South,172,4.0,6.0,69,0.00,,---,0.00,VWS V14.01,2013-06-28 22:35:00,
2013-06-28 18:40:00,86.2,75.3,29.60,SSE,152,2.0,9.0,70,0.00,,---,0.00,VWS V14.01,2013-06-28 22:40:00,
2013-06-28 18:45:00,86.0,75.1,29.60,SSE,160,4.0,5.0,70,0.00,,---,0.00,VWS V14.01,2013-06-28 22:45:00,
2013-06-28 18:50:00,86.0,75.1,29.60,ESE,108,4.0,6.0,70,0.00,,---,0.00,VWS V14.01,2013-06-28 22:50:00,
2013-06-28 18:55:00,85.9,75.4,29.60,South,173,5.0,7.0,71,0.00,,---,0.00,VWS V14.01,2013-06-28 22:55:00,
2013-06-28 19:00:00,85.7,75.6,29.60,SSE,162,2.0,5.0,72,0.00,,---,0.00,VWS V14.01,2013-06-28 23:00:00,
2013-06-28 19:05:00,85.6,75.5,29.60,SSW,192,2.0,6.0,72,0.00,,---,0.00,VWS V14.01,2013-06-28 23:05:00,
2013-06-28 19:10:00,85.4,75.8,29.60,South,182,4.0,6.0,73,0.00,,---,0.00,VWS V14.01,2013-06-28 23:10:00,
2013-06-28 19:15:00,85.3,76.1,29.60,South,188,4.0,6.0,74,0.00,,---,0.00,VWS V14.01,2013-06-28 23:15:00,
2013-06-28 19:20:00,85.1,75.5,29.61,South,169,3.0,8.0,73,0.00,,---,0.00,VWS V14.01,2013-06-28 23:20:00,
2013-06-28 19:25:00,85.0,75.8,29.61,South,174,4.0,6.0,74,0.00,,---,0.00,VWS V14.01,2013-06-28 23:25:00,
2013-06-28 19:30:00,84.9,76.1,29.61,SSW,198,2.0,6.0,75,0.00,,---,0.00,VWS V14.01,2013-06-28 23:30:00,
2013-06-28 19:35:00,84.7,75.9,29.61,SSW,195,3.0,7.0,75,0.00,,---,0.00,VWS V14.01,2013-06-28 23:35:00,
2013-06-28 19:40:00,84.6,75.4,29.61,SSW,198,4.0,6.0,74,0.00,,---,0.00,VWS V14.01,2013-06-28 23:40:00,
2013-06-28 19:45:00,84.5,75.7,29.61,SSE,165,3.0,5.0,75,0.00,,---,0.00,VWS V14.01,2013-06-28 23:45:00,
2013-06-28 19:50:00,84.3,75.5,29.62,SW,230,3.0,7.0,75,0.00,,---,0.00,VWS V14.01,2013-06-28 23:50:00,
2013-06-28 19:55:00,84.3,75.9,29.62,SSW,197,4.0,6.0,76,0.00,,---,0.00,VWS V14.01,2013-06-28 23:55:00,
2013-06-28 20:00:00,84.3,75.5,29.62,South,186,3.0,7.0,75,0.00,,---,0.00,VWS V14.01,2013-06-29 00:00:00,
2013-06-28 20:05:00,84.1,75.7,29.62,South,186,3.0,7.0,76,0.00,,---,0.00,VWS V14.01,2013-06-29 00:05:00,
2013-06-28 20:10:00,84.0,75.6,29.62,SSW,193,2.0,7.0,76,0.00,,---,0.00,VWS V14.01,2013-06-29 00:10:00,
2013-06-28 20:15:00,83.7,75.3,29.62,SSE,153,1.0,7.0,76,0.00,,---,0.00,VWS V14.01,2013-06-29 00:15:00,
2013-06-28 20:20:00,83.5,75.1,29.62,SSE,165,4.0,7.0,76,0.00,,---,0.00,VWS V14.01,2013-06-29 00:20:00,
2013-06-28 20:25:00,83.3,74.9,29.62,SSW,195,3.0,7.0,76,0.00,,---,0.00,VWS V14.01,2013-06-29 00:25:00,
2013-06-28 20:30:00,83.2,74.8,29.62,South,180,3.0,8.0,76,0.00,,---,0.00,VWS V14.01,2013-06-29 00:30:00,
2013-06-28 20:35:00,83.0,74.7,29.61,SSW,204,4.0,8.0,76,0.00,,---,0.00,VWS V14.01,2013-06-29 00:35:00,
2013-06-28 20:40:00,82.9,74.6,29.61,SE,137,4.0,9.0,76,0.00,,---,0.00,VWS V14.01,2013-06-29 00:40:00,
2013-06-28 20:45:00,82.7,74.4,29.61,SSW,203,4.0,9.0,76,0.00,,---,0.00,VWS V14.01,2013-06-29 00:45:00,
2013-06-28 20:50:00,82.6,74.3,29.61,South,179,3.0,7.0,76,0.00,,---,0.00,VWS V14.01,2013-06-29 00:50:00,
2013-06-28 20:55:00,82.6,74.3,29.61,SW,236,4.0,9.0,76,0.00,,---,0.00,VWS V14.01,2013-06-29 00:55:00,
2013-06-28 21:00:00,82.6,73.9,29.61,South,180,7.0,11.0,75,0.00,,---,0.00,VWS V14.01,2013-06-29 01:00:00,
2013-06-28 21:05:00,82.5,73.8,29.60,SSW,197,5.0,14.0,75,0.00,,---,0.00,VWS V14.01,2013-06-29 01:05:00,
2013-06-28 21:06:00,82.5,73.8,29.60,SSW,193,6.0,8.0,75,0.00,,---,0.00,VWS V14.01,2013-06-29 01:06:00,
2013-06-28 21:11:00,82.5,73.8,29.60,SW,214,9.0,10.0,75,0.00,,---,0.00,VWS V14.01,2013-06-29 01:11:00,
2013-06-28 21:16:00,82.4,73.7,29.60,South,185,6.0,6.0,75,0.00,,---,0.00,VWS V14.01,2013-06-29 01:16:00,
2013-06-28 21:21:00,82.4,73.7,29.60,SW,228,2.0,2.0,75,0.00,,---,0.00,VWS V14.01,2013-06-29 01:21:00,
2013-06-28 21:26:00,82.3,73.6,29.60,South,188,3.0,6.0,75,0.00,,---,0.00,VWS V14.01,2013-06-29 01:26:00,
2013-06-28 21:31:00,82.3,73.6,29.60,SW,225,6.0,7.0,75,0.00,,---,0.00,VWS V14.01,2013-06-29 01:31:00,
2013-06-28 21:36:00,82.3,73.6,29.60,SW,219,9.0,9.0,75,0.00,,---,0.00,VWS V14.01,2013-06-29 01:36:00,
2013-06-28 21:41:00,82.2,73.9,29.60,SSW,197,8.0,8.0,76,0.00,,---,0.00,VWS V14.01,2013-06-29 01:41:00,
2013-06-28 21:46:00,82.0,73.7,29.59,SSW,198,5.0,8.0,76,0.00,,---,0.00,VWS V14.01,2013-06-29 01:46:00,
2013-06-28 21:51:00,81.8,73.5,29.60,WSW,238,7.0,11.0,76,0.00,,---,0.00,VWS V14.01,2013-06-29 01:51:00,
2013-06-28 21:56:00,81.8,73.5,29.60,South,181,3.0,7.0,76,0.00,,---,0.00,VWS V14.01,2013-06-29 01:56:00,
2013-06-28 22:01:00,81.8,73.9,29.61,SSE,168,4.0,7.0,77,0.00,,---,0.00,VWS V14.01,2013-06-29 02:01:00,
2013-06-28 22:06:00,81.8,73.9,29.62,SW,222,8.0,8.0,77,0.00,,---,0.00,VWS V14.01,2013-06-29 02:06:00,
2013-06-28 22:11:00,81.9,73.6,29.62,SSW,211,7.0,11.0,76,0.00,,---,0.00,VWS V14.01,2013-06-29 02:11:00,
2013-06-28 22:16:00,82.4,73.3,29.63,WSW,243,6.0,12.0,74,0.00,,---,0.00,VWS V14.01,2013-06-29 02:16:00,
2013-06-28 22:21:00,82.8,72.9,29.63,SW,228,0.0,1.0,72,0.00,,---,0.00,VWS V14.01,2013-06-29 02:21:00,
2013-06-28 22:26:00,82.9,72.1,29.64,SW,233,8.0,13.0,70,0.00,,---,0.00,VWS V14.01,2013-06-29 02:26:00,
2013-06-28 22:31:00,82.8,71.6,29.64,WSW,257,5.0,8.0,69,0.00,,---,0.00,VWS V14.01,2013-06-29 02:31:00,
2013-06-28 22:36:00,82.7,71.5,29.64,WSW,255,3.0,5.0,69,0.00,,---,0.00,VWS V14.01,2013-06-29 02:36:00,
2013-06-28 22:41:00,82.6,71.4,29.64,WSW,257,5.0,6.0,69,0.00,,---,0.00,VWS V14.01,2013-06-29 02:41:00,
2013-06-28 22:46:00,82.4,71.2,29.65,WSW,239,2.0,3.0,69,0.00,,---,0.00,VWS V14.01,2013-06-29 02:46:00,
2013-06-28 22:51:00,82.2,71.4,29.65,West,274,3.0,6.0,70,0.00,,---,0.00,VWS V14.01,2013-06-29 02:51:00,
2013-06-28 22:56:00,82.0,71.7,29.65,NW,321,3.0,5.0,71,0.00,,---,0.00,VWS V14.01,2013-06-29 02:56:00,
2013-06-28 23:01:00,81.8,71.1,29.65,NW,311,1.0,2.0,70,0.00,,---,0.00,VWS V14.01,2013-06-29 03:01:00,
2013-06-28 23:06:00,81.6,71.3,29.66,NW,326,3.0,7.0,71,0.00,,---,0.00,VWS V14.01,2013-06-29 03:06:00,
2013-06-28 23:11:00,81.3,71.8,29.66,North,354,4.0,4.0,73,0.00,,---,0.00,VWS V14.01,2013-06-29 03:11:00,
2013-06-28 23:17:00,80.5,71.8,29.66,NE,53,0.0,6.0,75,0.00,,---,0.00,VWS V14.01,2013-06-29 03:17:00,
2013-06-28 23:22:00,79.7,71.9,29.66,North,4,3.0,3.0,77,0.00,,---,0.00,VWS V14.01,2013-06-29 03:22:00,
2013-06-28 23:26:00,79.0,71.6,29.66,NNW,338,1.0,3.0,78,0.00,,---,0.00,VWS V14.01,2013-06-29 03:26:00,
2013-06-28 23:32:00,78.2,71.2,29.67,North,1,7.0,7.0,79,0.00,,---,0.00,VWS V14.01,2013-06-29 03:32:00,
2013-06-28 23:37:00,77.6,70.9,29.67,NE,34,1.0,2.0,80,0.00,,---,0.00,VWS V14.01,2013-06-29 03:37:00,
2013-06-28 23:42:00,77.3,71.0,29.66,NE,56,0.0,0.0,81,0.00,,---,0.00,VWS V14.01,2013-06-29 03:42:00,
2013-06-28 23:47:00,77.0,71.1,29.66,ENE,57,0.0,0.0,82,0.00,,---,0.00,VWS V14.01,2013-06-29 03:47:00,
2013-06-28 23:52:00,76.7,70.8,29.66,SE,141,0.0,0.0,82,0.00,,---,0.00,VWS V14.01,2013-06-29 03:52:00,
2013-06-28 23:57:00,76.5,71.0,29.66,SE,141,0.0,0.0,83,0.00,,---,0.00,VWS V14.01,2013-06-29 03:57:00,